UAE502 OMDB-VABB

Flight info

Callsign UAE502
Flight time N/A
Altitude 37000
Route IVURO M677 LALDO B505 NADSO A777 VAXIM L301 KARKU M638 EXOLU POKON2A
Aircraft B77W/H-SDE1E2E3FGHIJ2J3J4J5M1RWXY/LB1D1

Departure

Time 2026-04-21 11:05
Airport Dubai International Airport (OMDB)

Arrival

Time N/A
Airport Chhatrapati Shivaji Maharaj International Airport (VABB)
Time Latitude Longitude Altitude Speed Heading
2026-04-21 10:31 25.24366 55.37380 27 ft 0 kts 210°
2026-04-21 10:55 25.24367 55.37380 32 ft 1 kts 210°
2026-04-21 10:55 25.24381 55.37390 25 ft 3 kts 213°
2026-04-21 10:55 25.24396 55.37400 24 ft 2 kts 212°
2026-04-21 10:55 25.24412 55.37410 25 ft 3 kts 194°
2026-04-21 10:56 25.24430 55.37411 25 ft 3 kts 158°
2026-04-21 10:56 25.24445 55.37400 26 ft 3 kts 127°
2026-04-21 10:56 25.24456 55.37381 26 ft 3 kts 118°
2026-04-21 10:56 25.24463 55.37367 25 ft 1 kts 122°
2026-04-21 10:57 25.24466 55.37364 25 ft 0 kts 122°
2026-04-21 10:59 25.24463 55.37368 25 ft 3 kts 122°
2026-04-21 11:00 25.24443 55.37426 27 ft 13 kts 103°
2026-04-21 11:00 25.24433 55.37525 27 ft 13 kts 96°
2026-04-21 11:00 25.24417 55.37623 27 ft 13 kts 111°
2026-04-21 11:00 25.24391 55.37684 27 ft 11 kts 119°
2026-04-21 11:01 25.24333 55.37789 27 ft 21 kts 121°
2026-04-21 11:01 25.24240 55.37945 27 ft 26 kts 123°
2026-04-21 11:01 25.24143 55.38109 27 ft 26 kts 122°
2026-04-21 11:02 25.23969 55.38452 27 ft 26 kts 120°
2026-04-21 11:02 25.23873 55.38617 27 ft 26 kts 123°
2026-04-21 11:02 25.23780 55.38784 27 ft 26 kts 121°
2026-04-21 11:02 25.23688 55.38952 27 ft 26 kts 121°
2026-04-21 11:03 25.23597 55.39117 27 ft 26 kts 121°
2026-04-21 11:03 25.23517 55.39275 27 ft 20 kts 102°
2026-04-21 11:03 25.23588 55.39396 27 ft 20 kts 23°
2026-04-21 11:03 25.23660 55.39362 27 ft 9 kts 300°
2026-04-21 11:04 25.23693 55.39295 27 ft 14 kts 299°
2026-04-21 11:04 25.23849 55.39019 27 ft 77 kts 302°
2026-04-21 11:04 25.24250 55.38301 27 ft 140 kts 302°
2026-04-21 11:04 25.24858 55.37233 50 ft 183 kts 303°
2026-04-21 11:05 25.25555 55.35980 415 ft 195 kts 302°
2026-04-21 11:05 25.26254 55.34720 1014 ft 197 kts 302°
2026-04-21 11:05 25.26988 55.33438 1625 ft 198 kts 305°
2026-04-21 11:05 25.27786 55.32170 2098 ft 205 kts 309°
2026-04-21 11:06 25.28700 55.30931 2658 ft 209 kts 313°
2026-04-21 11:06 25.29687 55.29708 3145 ft 217 kts 318°
2026-04-21 11:06 25.30962 55.28875 3705 ft 214 kts 348°
2026-04-21 11:06 25.32421 55.28800 4346 ft 208 kts
2026-04-21 11:07 25.33891 55.29004 4657 ft 221 kts
2026-04-21 11:07 25.35434 55.29137 5018 ft 228 kts
2026-04-21 11:07 25.37008 55.29331 5501 ft 228 kts
2026-04-21 11:07 25.38591 55.29476 6032 ft 228 kts
2026-04-21 11:08 25.40049 55.30118 6341 ft 230 kts 44°
2026-04-21 11:08 25.41099 55.31464 6671 ft 234 kts 52°
2026-04-21 11:08 25.42134 55.32882 7039 ft 240 kts 51°
2026-04-21 11:08 25.43202 55.34339 7467 ft 246 kts 51°
2026-04-21 11:09 25.44290 55.35828 7915 ft 251 kts 50°
2026-04-21 11:09 25.45395 55.37341 8363 ft 254 kts 50°
2026-04-21 11:09 25.46497 55.38849 8835 ft 257 kts 50°
2026-04-21 11:09 25.47631 55.40400 9306 ft 260 kts 50°
2026-04-21 11:10 25.48767 55.41968 9757 ft 263 kts 50°
2026-04-21 11:10 25.49891 55.43575 10165 ft 266 kts 51°
2026-04-21 11:10 25.51023 55.45204 10621 ft 267 kts 51°
2026-04-21 11:10 25.52159 55.46837 11052 ft 269 kts 51°
2026-04-21 11:11 25.53043 55.48633 11446 ft 265 kts 80°
2026-04-21 11:11 25.53050 55.50619 11881 ft 256 kts 109°
2026-04-21 11:11 25.52350 55.52363 12226 ft 249 kts 126°
2026-04-21 11:11 25.51427 55.53988 12579 ft 250 kts 126°
2026-04-21 11:12 25.50492 55.55610 12939 ft 250 kts 126°
2026-04-21 11:12 25.49554 55.57233 13261 ft 254 kts 126°
2026-04-21 11:12 25.48592 55.58900 13473 ft 261 kts 126°
2026-04-21 11:12 25.47604 55.60618 13702 ft 269 kts 125°
2026-04-21 11:13 25.46586 55.62395 13905 ft 277 kts 125°
2026-04-21 11:13 25.45539 55.64229 14113 ft 286 kts 125°
2026-04-21 11:13 25.44457 55.66124 14341 ft 296 kts 125°
2026-04-21 11:13 25.43343 55.68077 14561 ft 305 kts 125°
2026-04-21 11:14 25.42364 55.70150 14769 ft 314 kts 109°
2026-04-21 11:14 25.41864 55.72528 15066 ft 321 kts 103°
2026-04-21 11:14 25.41396 55.74973 15361 ft 328 kts 104°
2026-04-21 11:14 25.40895 55.77455 15706 ft 333 kts 105°
2026-04-21 11:15 25.40372 55.79961 16098 ft 336 kts 105°
2026-04-21 11:15 25.39835 55.82491 16485 ft 340 kts 105°
2026-04-21 11:15 25.39292 55.85039 16898 ft 342 kts 105°
2026-04-21 11:15 25.38744 55.87605 17335 ft 343 kts 105°
2026-04-21 11:16 25.38197 55.90164 17837 ft 342 kts 105°
2026-04-21 11:16 25.37649 55.92726 18194 ft 344 kts 105°
2026-04-21 11:16 25.37102 55.95278 18494 ft 347 kts 105°
2026-04-21 11:16 25.36544 55.97891 18778 ft 350 kts 105°
2026-04-21 11:17 25.35983 56.00522 19077 ft 353 kts 105°
2026-04-21 11:17 25.35416 56.03174 19380 ft 356 kts 105°
2026-04-21 11:17 25.34846 56.05841 19706 ft 358 kts 105°
2026-04-21 11:17 25.34272 56.08529 19983 ft 360 kts 105°
2026-04-21 11:18 25.33692 56.11233 20255 ft 363 kts 105°
2026-04-21 11:18 25.33109 56.13952 20551 ft 365 kts 106°
2026-04-21 11:18 25.32586 56.16670 20816 ft 368 kts 100°
2026-04-21 11:18 25.32301 56.19493 21096 ft 371 kts 96°
2026-04-21 11:19 25.32114 56.22348 21362 ft 374 kts 96°
2026-04-21 11:19 25.31931 56.25221 21638 ft 375 kts 96°
2026-04-21 11:19 25.31728 56.28095 21920 ft 376 kts 97°
2026-04-21 11:19 25.31504 56.30984 22202 ft 377 kts 97°
2026-04-21 11:20 25.31268 56.33870 22489 ft 377 kts 97°
2026-04-21 11:20 25.31024 56.36758 22751 ft 378 kts 97°
2026-04-21 11:20 25.30781 56.39657 23013 ft 379 kts 96°
2026-04-21 11:20 25.30641 56.42529 23288 ft 379 kts 94°
2026-04-21 11:21 25.30574 56.45444 23536 ft 379 kts 93°
2026-04-21 11:21 25.30519 56.48352 23765 ft 379 kts 93°
2026-04-21 11:21 25.30454 56.51258 24002 ft 378 kts 94°
2026-04-21 11:21 25.30375 56.54157 24238 ft 377 kts 94°
2026-04-21 11:22 25.30290 56.57042 24450 ft 375 kts 94°
2026-04-21 11:22 25.30140 56.59907 24684 ft 370 kts 102°
2026-04-21 11:22 25.29481 56.62614 24943 ft 362 kts 116°
2026-04-21 11:22 25.28439 56.65108 25190 ft 355 kts 118°
2026-04-21 11:23 25.27435 56.67553 25415 ft 353 kts 117°
2026-04-21 11:23 25.26455 56.70025 25639 ft 350 kts 117°
2026-04-21 11:23 25.25501 56.72484 25861 ft 346 kts 116°
2026-04-21 11:23 25.24567 56.74915 26093 ft 342 kts 116°
2026-04-21 11:24 25.23652 56.77313 26291 ft 337 kts 116°
2026-04-21 11:24 25.22753 56.79676 26514 ft 331 kts 116°
2026-04-21 11:24 25.21872 56.81996 26713 ft 324 kts 116°
2026-04-21 11:24 25.21022 56.84236 26905 ft 316 kts 116°
2026-04-21 11:25 25.20183 56.86445 27078 ft 308 kts 116°
2026-04-21 11:25 25.19364 56.88600 27148 ft 303 kts 116°
2026-04-21 11:25 25.18546 56.90747 26993 ft 306 kts 116°
2026-04-21 11:25 25.17710 56.92934 26763 ft 313 kts 116°
2026-04-21 11:26 25.16859 56.95164 26600 ft 317 kts 116°
2026-04-21 11:26 25.16008 56.97395 26612 ft 314 kts 116°
2026-04-21 11:26 25.15170 56.99598 26718 ft 308 kts 116°
2026-04-21 11:26 25.14387 57.01656 26766 ft 304 kts 116°
2026-04-21 11:27 25.13566 57.03809 26660 ft 305 kts 116°
2026-04-21 11:27 25.12746 57.05954 26492 ft 310 kts 116°
2026-04-21 11:27 25.11902 57.08159 26354 ft 314 kts 116°
2026-04-21 11:27 25.11055 57.10376 26338 ft 312 kts 116°
2026-04-21 11:28 25.10217 57.12570 26401 ft 308 kts 116°
2026-04-21 11:28 25.09392 57.14731 26444 ft 304 kts 116°
2026-04-21 11:28 25.08569 57.16882 26386 ft 305 kts 116°
2026-04-21 11:28 25.07740 57.19045 26257 ft 308 kts 116°
2026-04-21 11:29 25.06903 57.21229 26150 ft 311 kts 116°
2026-04-21 11:29 25.06062 57.23422 26118 ft 310 kts 116°
2026-04-21 11:29 25.05236 57.25579 26149 ft 307 kts 116°
2026-04-21 11:29 25.04409 57.27737 26177 ft 304 kts 116°
2026-04-21 11:30 25.03585 57.29885 26143 ft 304 kts 116°
2026-04-21 11:30 25.02758 57.32036 26049 ft 306 kts 116°
2026-04-21 11:30 25.01923 57.34208 25950 ft 308 kts 116°
2026-04-21 11:30 25.01085 57.36387 25918 ft 309 kts 116°
2026-04-21 11:31 25.00250 57.38558 25920 ft 307 kts 116°
2026-04-21 11:31 24.99421 57.40712 25932 ft 304 kts 116°
2026-04-21 11:31 24.98598 57.42850 25918 ft 303 kts 115°
2026-04-21 11:31 24.97783 57.44966 25849 ft 305 kts 115°
2026-04-21 11:32 24.96952 57.47122 25766 ft 307 kts 115°
2026-04-21 11:32 24.96117 57.49288 25727 ft 307 kts 115°
2026-04-21 11:32 24.95282 57.51452 25735 ft 306 kts 115°
2026-04-21 11:32 24.94454 57.53599 25747 ft 304 kts 115°
2026-04-21 11:33 24.93628 57.55738 25738 ft 303 kts 115°
2026-04-21 11:33 24.92802 57.57876 25675 ft 304 kts 115°
2026-04-21 11:33 24.91973 57.60020 25601 ft 305 kts 115°
2026-04-21 11:33 24.91138 57.62180 25566 ft 306 kts 115°
2026-04-21 11:34 24.90316 57.64302 25549 ft 305 kts 115°
2026-04-21 11:34 24.89487 57.66446 25572 ft 303 kts 115°
2026-04-21 11:34 24.88662 57.68577 25575 ft 302 kts 115°
2026-04-21 11:34 24.87837 57.70704 25538 ft 302 kts 115°
2026-04-21 11:35 24.87010 57.72839 25494 ft 303 kts 115°
2026-04-21 11:35 24.86180 57.74979 25441 ft 304 kts 115°
2026-04-21 11:35 24.85348 57.77123 25428 ft 304 kts 115°
2026-04-21 11:35 24.84518 57.79261 25427 ft 303 kts 115°
2026-04-21 11:36 24.83691 57.81389 25424 ft 302 kts 115°
2026-04-21 11:36 24.82864 57.83475 25386 ft 302 kts 117°
2026-04-21 11:36 24.81968 57.85564 25334 ft 303 kts 118°
2026-04-21 11:36 24.81046 57.87654 25275 ft 304 kts 118°
2026-04-21 11:37 24.80121 57.89745 25269 ft 303 kts 118°
2026-04-21 11:37 24.79201 57.91828 25267 ft 302 kts 118°
2026-04-21 11:37 24.78285 57.93906 25284 ft 301 kts 118°
2026-04-21 11:37 24.77376 57.95974 25278 ft 300 kts 118°
2026-04-21 11:38 24.77008 57.96811 25285 ft 300 kts 118°